Regional Weather Roundup
Issued by NWS

Home | Current Version | Previous Version | Graphics & Text | Print | Product List | Glossary On
Versions: 1 2 3 4 5 6 7 8 9 10 11 12 13 14 15 16 17 18 19 20 21 22 23 24 25 26 27 28 29 30 31 32 33 34 35 36 37 38 39 40 41 42 43 44 45 46 47 48 49 50
000
ASUS43 KDMX 201406
RWRIA

WEATHER ROUNDUP FOR IOWA
NATIONAL WEATHER SERVICE DES MOINES IA
800 AM CST MON FEB 20 2017

NOTE: "FAIR" INDICATES FEW OR NO CLOUDS BELOW 12,000 FEET WITH NO
SIGNIFICANT WEATHER AND/OR OBSTRUCTIONS TO VISIBILITY.

* - THESE STATIONS ARE NOT NWS STATIONS...THUS NOT UNDER NWS
QUALITY CONTROL.  THEY ALSO DO NOT REPORT WEATHER SUCH
AS PRECIPITATION OR FOG.

IAZ001>003-012>014-020>022-031>034-043>046-201500-
   NORTHWEST IOWA

CITY           SKY/WX    TMP DP  RH WIND       PRES   REMARKS
CARROLL *      CLOUDY    52  52 100 S8        29.79R FOG
CHEROKEE *     DRIZZLE   52  52 100 SE7       29.75S
DENISON *      CLOUDY    55  55 100 S16G24    29.74F FOG
LE MARS *      CLOUDY    55  54  94 SE14G20   29.72F FOG
SHELDON *      CLOUDY    52  52 100 SE17      29.71F FOG
SIOUX CITY     CLOUDY    56  54  93 SE9       29.72S FOG
SPENCER        CLOUDY    50  49  96 SE9       29.76S FOG
STORM LAKE *   CLOUDY    52  52 100 S12       29.77S FOG
$$

IAZ055>058-069>071-079>083-090>094-201500-
   SOUTHWEST IOWA

CITY           SKY/WX    TMP DP  RH WIND       PRES   REMARKS
ATLANTIC *     LGT RAIN  57  57 100 S9        29.80R
CLARINDA *     CLOUDY    59  57  94 S10         N/A
COUNCIL BLFS * CLOUDY    57  57 100 S12       29.77R
CRESTON *      CLOUDY    55  55 100 SE9       29.83S
HARLAN  *      CLOUDY    55  55 100 S9        29.80F FOG
LAMONI         CLOUDY    58  54  86 SE15      29.84S
RED OAK *      LGT RAIN  59  57  94 S6        29.79S
SHENANDOAH *   CLOUDY    59  57  94 S12       29.79R
$$

IAZ047>049-059>061-072>074-084-201500-
   CENTRAL IOWA

CITY           SKY/WX    TMP DP  RH WIND       PRES   REMARKS
AMES           RAIN      52  52 100 SE7       29.84S FOG
ANKENY *       LGT RAIN  57  55  94 S8        29.85S
BOONE *        LGT RAIN  52  52 100 SE12      29.82F VSB 1
CHARITON *     CLOUDY    57  54  88 S12       29.86F
DES MOINES     LGT RAIN  59  55  87 S14       29.84S
GRINNELL*      CLOUDY    53  50  90 SE13      29.89R
KNOXVILLE *    CLOUDY    59  54  82 S13       29.85S
MARSHALLTOWN   LGT RAIN  52  50  93 S12       29.86S
NEWTON *       CLOUDY    54  50  87 SE12      29.86R
PELLA *        CLOUDY    57  52  83 S12       29.89R
PERRY *        LGT RAIN  54  54  98 SE14      29.81F
$$

IAZ004>006-015-016-023>025-035-036-201500-
   NORTH CENTRAL IOWA

CITY           SKY/WX    TMP DP  RH WIND       PRES   REMARKS
ALGONA *       LGT RAIN  50  50 100 SE12      29.77F
CLARION *      CLOUDY    50  50 100 SE16      29.83F FOG
ESTHERVILLE    LGT RAIN  50  50 100 SE16      29.74F FOG
FORT DODGE *   CLOUDY    52  46  82 SE9       29.80F
MASON CITY     LGT RAIN  47  45  93 SE12      29.85F FOG
FOREST CITY *  RAIN      46  45  93 SE9       29.84S
IOWA FALLS *   RAIN      50  48  95 SE10      29.86S
$$

IAZ007>011-017>019-026>030-037>042-050>054-066-201500-
   NORTHEAST IOWA

CITY           SKY/WX    TMP DP  RH WIND       PRES   REMARKS
CEDAR RAPIDS   CLOUDY    51  51 100 SE9       29.93S FOG
CHARLES CITY * CLOUDY    48  48 100 SE15      29.89F FOG
CLINTON *      FOG       49  48  97 SE13      30.02F VSB 1/4
DECORAH *      CLOUDY    48  46  93 SE13G20   29.92R FOG
DUBUQUE        FOG       48  47  96 SE18      29.98F VSB 1
MONTICELLO *   CLOUDY    48  48 100 SE16      29.97R FOG
OELWEIN *      CLOUDY    48  46  93 SE14      29.93R FOG
WATERLOO       CLOUDY    52  48  86 SE12      29.89S FOG
$$

IAZ064-065-067-068-078-201500-
   EAST CENTRAL IOWA

CITY           SKY/WX    TMP DP  RH WIND       PRES   REMARKS
DAVENPORT      CLOUDY    51  50  96 SE15      30.01S FOG
IOWA CITY      CLOUDY    51  49  92 SE8       29.97S FOG
MUSCATINE *    CLOUDY    52  50  93 SE12G18   29.99R FOG
QUAD CITIES    FOG       52  49  89 SE9       30.01R VSB 1
$$

IAZ062-063-075>077-085>089-095>099-201500-
   SOUTHEAST IOWA

CITY           SKY/WX    TMP DP  RH WIND       PRES   REMARKS
BURLINGTON     CLOUDY    53  51  93 SE9       29.99R FOG
FAIRFIELD *    CLOUDY    54  50  87 SE13      29.93S
KEOKUK *       CLOUDY    54  52  94 SE12      29.97S FOG
OTTUMWA        CLOUDY    57  54  89 SE16      29.90R
WASHINGTON *   CLOUDY    54  52  94 SE16      29.96R FOG
$$

ABBREVIATIONS USED IN REMARKS
   TC - TEMPERATURES IN CELSIUS
  WCI - WIND CHILL INDEX
   HX - HEAT INDEX
  VSB - VISIBILITY
$$





USA.gov is the U.S. government's official web portal to all federal, state and local government web resources and services.